SL-16 DEB, 22348

Orbit data source: Space-Track

SL-16 DEB, 22348 is space debris in LEO originally from a launch on Fri, 25 Dec 1992 UTC launched from the Tyuratam Missile And Space Complex (TTMTR). Debris objects in space refer to the collection of defunct objects orbiting the Earth. Examples of debris include non-operational satellites, rocket bodies, and fragments generated from explosions, collisions, or faulty payload assembly.

Loading next visibility...
SL-16 DEB details
Identifier
22348, 1992-093AM
Orbit
LEO
Last TLE update14 hours ago
Origin
Flag of CISRVSN RF (CIS)
ManufacturerUnknown
MissionSpacecraft
Bus & MotorUnknown
MassUnknown
Launch date (UTC)
1992-12-25 (32 years ago)
Launch vehicleUnknown
Launch site
Tyuratam Missile And Space Complex (TTMTR)
Object type
Payload
Rocket body
Debris
Shape & HBRUnknown
Radar Cross SectionSmall (<0.1 m²)

Expand to show TLE details & history

TLE from 14 hours ago
0 SL-16 DEB
1 22348U 92093AM  24361.13922285  .00001279  00000-0  73437-3 0  9996
2 22348  71.2585 233.2945 0103279 132.2724  26.5150 14.08481050637590
Epoch: 2024-12-26T03:20Z
Definitive object data (Epoch: 2024-12-26T03:20:28.854Z)
Latitude19.54626°
Longitude-98.8301°
Altitude799.748 km
Speed7.49 km/s
True Right ascension03h 05m 39s
True Declination19° 26' 19"
Sunlit
Object was in full shadow at TLE epoch
Visualization TLE readout
Latitude-19.28657°
Longitude-86.3471°
Altitude843.718 km
Speed7.444 km/s
Apparent Right ascension04h 10m 57s
Apparent Declination-28° 52' 49"
Sunlit
Object is in full shadow
Visualization observer readout
Local Sidereal Time16:32:22
Azimuth23.381° NE
Elevation-78.119°
Doppler factor1
Orbital elements
Apogee altitude937.26 km
Perigee altitude787.7 km
Semi-major axis7,240.617 km
Eccentricity0.0103279
Inclination71.2585°
RAAN233.2945°
Arg. of periapsis132.2724°
True anomaly27.04951°
Mean anomaly26.515°
Eccentric anomaly26.78164°
Mean motion3.52273 °/min
BSTAR0.00073437
Orbital period102.19 mins
Loading maneuver chart data...
Loading historical data...
Loading historical data...
Loading historical data...
Loading historical data...
Loading historical data...
Loading historical data...
Loading historical data...

SL-16 DEB Visibility forecast

Observer location: undefined°, undefined

Span
Click to sort rows by Start time (UTC) header in descending order
Start Az.
Max El. time (UTC)
Max El. Az.
Max El.
End time (UTC)
End Az.
9 mins2024-12-26 18:05:04.959Z242.052° WSW2024-12-26 18:10:04.959Z310.004° NW27.448°2024-12-26 18:14:04.959Z0.703° NNE
5 mins2024-12-27 01:19:04.959Z23.929° NE2024-12-27 01:21:04.959Z48.694° ENE15.301°2024-12-27 01:24:04.959Z84.824° E
9 mins2024-12-27 03:02:04.959Z331.966° NNW2024-12-27 03:06:04.959Z274.115° WNW43.459°2024-12-27 03:11:04.959Z166.967° S
9 mins2024-12-27 16:13:04.959Z165.148° S2024-12-27 16:17:04.959Z102.711° ESE32.329°2024-12-27 16:22:04.959Z38.701° NE
|